DLH2L8 LPPT-GMMN

Flight info

Callsign DLH2L8
Flight time 1h 13m
Altitude 37000
Route DUZOP DCT AMSEL UR722 LAKAM
Aircraft A20N/M-SDE2E3FGHIRWXY/LB1

Departure

Time 2026-05-07 18:09
Airport Lisbon Humberto Delgado Airport (LPPT)

Arrival

Time 2026-05-07 19:22
Airport Mohammed V International Airport (GMMN)
Time Latitude Longitude Altitude Speed Heading
2026-05-07 17:08 38.76981 -9.13095 347 ft 0 kts 72°
2026-05-07 17:53 38.76979 -9.13101 347 ft 1 kts 72°
2026-05-07 17:53 38.76975 -9.13118 354 ft 2 kts 72°
2026-05-07 17:53 38.76971 -9.13137 354 ft 2 kts 81°
2026-05-07 17:54 38.76972 -9.13155 353 ft 2 kts 134°
2026-05-07 17:54 38.76979 -9.13163 353 ft 0 kts 178°
2026-05-07 17:59 38.76978 -9.13163 353 ft 2 kts 178°
2026-05-07 18:00 38.76931 -9.13153 354 ft 10 kts 168°
2026-05-07 18:00 38.76852 -9.13131 347 ft 13 kts 166°
2026-05-07 18:00 38.76778 -9.13173 347 ft 12 kts 253°
2026-05-07 18:00 38.76759 -9.13289 354 ft 14 kts 258°
2026-05-07 18:01 38.76717 -9.13407 353 ft 15 kts 222°
2026-05-07 18:01 38.76648 -9.13511 349 ft 16 kts 252°
2026-05-07 18:01 38.76624 -9.13656 349 ft 17 kts 259°
2026-05-07 18:01 38.76601 -9.13810 346 ft 18 kts 259°
2026-05-07 18:02 38.76498 -9.14114 351 ft 19 kts 243°
2026-05-07 18:02 38.76520 -9.14248 348 ft 5 kts 294°
2026-05-07 18:02 38.76520 -9.14249 348 ft 0 kts 294°
2026-05-07 18:07 38.76522 -9.14253 347 ft 4 kts 294°
2026-05-07 18:07 38.76545 -9.14324 349 ft 13 kts 293°
2026-05-07 18:07 38.76618 -9.14400 336 ft 15 kts
2026-05-07 18:07 38.76663 -9.14381 335 ft 0 kts 23°
2026-05-07 18:08 38.76667 -9.14379 336 ft 10 kts 23°
2026-05-07 18:08 38.76955 -9.14229 340 ft 78 kts 22°
2026-05-07 18:08 38.77630 -9.13867 347 ft 130 kts 22°
2026-05-07 18:09 38.78580 -9.13353 487 ft 158 kts 20°
2026-05-07 18:09 38.79585 -9.12765 1023 ft 162 kts 19°
2026-05-07 18:09 38.80611 -9.12162 1660 ft 160 kts 19°
2026-05-07 18:09 38.81585 -9.11548 2296 ft 160 kts 24°
2026-05-07 18:10 38.82623 -9.10835 2602 ft 178 kts 25°
2026-05-07 18:10 38.83754 -9.10003 2945 ft 198 kts 26°
2026-05-07 18:10 38.85013 -9.09051 3256 ft 220 kts 26°
2026-05-07 18:10 38.86391 -9.07994 3566 ft 244 kts 28°
2026-05-07 18:11 38.87704 -9.06456 3989 ft 272 kts 56°
2026-05-07 18:11 38.88247 -9.04974 4375 ft 283 kts 75°
2026-05-07 18:11 38.88151 -9.01745 5795 ft 267 kts 115°
2026-05-07 18:11 38.87303 -8.99676 6907 ft 262 kts 125°
2026-05-07 18:12 38.86127 -8.97884 7674 ft 265 kts 146°
2026-05-07 18:12 38.84482 -8.96851 8527 ft 266 kts 168°
2026-05-07 18:12 38.82637 -8.96732 9374 ft 270 kts 189°
2026-05-07 18:12 38.80842 -8.97490 9773 ft 274 kts 202°
2026-05-07 18:13 38.79092 -8.98451 9891 ft 274 kts 202°
2026-05-07 18:13 38.77343 -8.99422 9910 ft 273 kts 202°
2026-05-07 18:13 38.75596 -9.00383 9911 ft 274 kts 202°
2026-05-07 18:13 38.73745 -9.01386 9915 ft 306 kts 202°
2026-05-07 18:14 38.71725 -9.02472 9911 ft 319 kts 202°
2026-05-07 18:14 38.69687 -9.03565 9909 ft 314 kts 202°
2026-05-07 18:14 38.67727 -9.04615 9909 ft 297 kts 202°
2026-05-07 18:14 38.65876 -9.05606 9923 ft 280 kts 201°
2026-05-07 18:15 38.64119 -9.06544 9819 ft 273 kts 201°
2026-05-07 18:15 38.62275 -9.07100 9867 ft 275 kts 179°
2026-05-07 18:15 38.60381 -9.06582 10191 ft 290 kts 163°
2026-05-07 18:15 38.58390 -9.05724 10462 ft 314 kts 162°
2026-05-07 18:16 38.56289 -9.04777 11033 ft 324 kts 162°
2026-05-07 18:16 38.54151 -9.03804 11794 ft 328 kts 162°
2026-05-07 18:16 38.51985 -9.02821 12583 ft 332 kts 162°
2026-05-07 18:16 38.49794 -9.01832 13385 ft 336 kts 162°
2026-05-07 18:17 38.47575 -9.00835 14127 ft 340 kts 162°
2026-05-07 18:17 38.45332 -8.99829 14803 ft 344 kts 162°
2026-05-07 18:17 38.43065 -8.98814 15495 ft 347 kts 163°
2026-05-07 18:17 38.40772 -8.97789 16069 ft 352 kts 163°
2026-05-07 18:18 38.38458 -8.96736 16140 ft 354 kts 162°
2026-05-07 18:18 38.36137 -8.95657 16303 ft 356 kts 162°
2026-05-07 18:18 38.33818 -8.94579 17140 ft 350 kts 163°
2026-05-07 18:18 38.31582 -8.93570 18465 ft 332 kts 164°
2026-05-07 18:19 38.29479 -8.92634 19808 ft 305 kts 165°
2026-05-07 18:19 38.27591 -8.91783 21316 ft 276 kts 166°
2026-05-07 18:19 38.25829 -8.90988 22204 ft 268 kts 167°
2026-05-07 18:19 38.24028 -8.90209 22472 ft 278 kts 167°
2026-05-07 18:20 38.22155 -8.89371 22641 ft 294 kts 165°
2026-05-07 18:20 38.20844 -8.88726 22730 ft 304 kts 164°
2026-05-07 18:20 38.18820 -8.87725 22866 ft 320 kts 164°
2026-05-07 18:20 38.16692 -8.86696 23002 ft 335 kts 165°
2026-05-07 18:21 38.14461 -8.85644 23143 ft 349 kts 165°
2026-05-07 18:21 38.12164 -8.84576 23280 ft 363 kts 165°
2026-05-07 18:21 38.09708 -8.83444 23415 ft 377 kts 165°
2026-05-07 18:21 38.07195 -8.82288 23548 ft 391 kts 165°
2026-05-07 18:22 38.04640 -8.81113 23791 ft 399 kts 164°
2026-05-07 18:22 38.02872 -8.80298 24095 ft 401 kts 165°
2026-05-07 18:22 37.99352 -8.78677 24690 ft 404 kts 165°
2026-05-07 18:22 37.96698 -8.77458 25113 ft 407 kts 165°
2026-05-07 18:23 37.94063 -8.76250 25528 ft 410 kts 165°
2026-05-07 18:23 37.91376 -8.75020 25940 ft 412 kts 165°
2026-05-07 18:23 37.88667 -8.73781 26354 ft 415 kts 165°
2026-05-07 18:23 37.85944 -8.72537 26746 ft 417 kts 165°
2026-05-07 18:24 37.83205 -8.71285 27117 ft 420 kts 165°
2026-05-07 18:24 37.80435 -8.70022 27389 ft 425 kts 165°
2026-05-07 18:24 37.77650 -8.68752 27785 ft 427 kts 165°
2026-05-07 18:24 37.74848 -8.67475 28150 ft 429 kts 165°
2026-05-07 18:25 37.72027 -8.66192 28512 ft 432 kts 165°
2026-05-07 18:25 37.69191 -8.64901 28865 ft 434 kts 165°
2026-05-07 18:25 37.66342 -8.63606 29189 ft 437 kts 165°
2026-05-07 18:25 37.63476 -8.62304 29504 ft 439 kts 165°
2026-05-07 18:26 37.61263 -8.61299 29836 ft 439 kts 166°
2026-05-07 18:26 37.58383 -8.59992 30150 ft 441 kts 166°
2026-05-07 18:26 37.55488 -8.58680 30450 ft 443 kts 166°
2026-05-07 18:26 37.52580 -8.57363 30758 ft 445 kts 166°
2026-05-07 18:27 37.49661 -8.56042 31070 ft 446 kts 166°
2026-05-07 18:27 37.46743 -8.54722 31447 ft 445 kts 166°
2026-05-07 18:27 37.43830 -8.53404 31852 ft 444 kts 167°
2026-05-07 18:27 37.40931 -8.52094 32262 ft 442 kts 167°
2026-05-07 18:28 37.38040 -8.50789 32656 ft 440 kts 167°
2026-05-07 18:28 37.35164 -8.49492 33065 ft 438 kts 167°
2026-05-07 18:28 37.32295 -8.48200 33431 ft 437 kts 168°
2026-05-07 18:28 37.29433 -8.46914 33735 ft 437 kts 168°
2026-05-07 18:29 37.26579 -8.45632 34055 ft 436 kts 168°
2026-05-07 18:29 37.23731 -8.44353 34356 ft 434 kts 168°
2026-05-07 18:29 37.20884 -8.43076 34640 ft 433 kts 168°
2026-05-07 18:29 37.18048 -8.41804 34921 ft 432 kts 168°
2026-05-07 18:30 37.15217 -8.40537 35153 ft 432 kts 168°
2026-05-07 18:30 37.12388 -8.39271 35409 ft 431 kts 169°
2026-05-07 18:30 37.09562 -8.38008 35665 ft 431 kts 169°
2026-05-07 18:30 37.06746 -8.36750 35910 ft 430 kts 169°
2026-05-07 18:31 37.03932 -8.35493 36148 ft 429 kts 169°
2026-05-07 18:31 37.01123 -8.34240 36357 ft 428 kts 169°
2026-05-07 18:31 36.98304 -8.32986 36445 ft 431 kts 169°
2026-05-07 18:31 36.95475 -8.31727 36613 ft 432 kts 169°
2026-05-07 18:32 36.92648 -8.30469 36809 ft 431 kts 169°
2026-05-07 18:32 36.89825 -8.29212 36918 ft 430 kts 169°
2026-05-07 18:32 36.87009 -8.27960 36924 ft 429 kts 169°
2026-05-07 18:33 36.81390 -8.25466 36925 ft 429 kts 169°
2026-05-07 18:33 36.75765 -8.22974 36931 ft 429 kts 169°
2026-05-07 18:34 36.70139 -8.20485 36916 ft 429 kts 169°
2026-05-07 18:34 36.64513 -8.18001 36941 ft 429 kts 169°
2026-05-07 18:35 36.58881 -8.15518 36937 ft 430 kts 169°
2026-05-07 18:35 36.53243 -8.13036 36948 ft 430 kts 169°
2026-05-07 18:36 36.47606 -8.10558 36943 ft 430 kts 169°
2026-05-07 18:36 36.41967 -8.08083 36935 ft 429 kts 169°
2026-05-07 18:37 36.36331 -8.05613 36942 ft 430 kts 169°
2026-05-07 18:37 36.30695 -8.03147 36941 ft 430 kts 169°
2026-05-07 18:38 36.25053 -8.00682 36944 ft 430 kts 169°
2026-05-07 18:38 36.19419 -7.98224 36940 ft 429 kts 169°
2026-05-07 18:39 36.13780 -7.95768 36946 ft 430 kts 169°
2026-05-07 18:39 36.08142 -7.93315 36944 ft 430 kts 169°
2026-05-07 18:40 36.02500 -7.90864 36943 ft 430 kts 169°
2026-05-07 18:40 35.96820 -7.88745 36934 ft 421 kts 176°
2026-05-07 18:41 35.91088 -7.87791 36930 ft 412 kts 184°
2026-05-07 18:41 35.85362 -7.87303 36943 ft 413 kts 184°
2026-05-07 18:42 35.79630 -7.86788 36948 ft 413 kts 184°
2026-05-07 18:42 35.73893 -7.86267 36951 ft 414 kts 184°
2026-05-07 18:43 35.68149 -7.85747 36953 ft 414 kts 184°
2026-05-07 18:43 35.62403 -7.85227 36955 ft 414 kts 184°
2026-05-07 18:44 35.56691 -7.84712 36957 ft 414 kts 184°
2026-05-07 18:44 35.50938 -7.84193 36960 ft 415 kts 184°
2026-05-07 18:45 35.45187 -7.83676 36951 ft 414 kts 184°
2026-05-07 18:45 35.39436 -7.83162 36947 ft 414 kts 184°
2026-05-07 18:46 35.33683 -7.82677 36956 ft 414 kts 184°
2026-05-07 18:46 35.27932 -7.82196 36958 ft 414 kts 184°
2026-05-07 18:47 35.22193 -7.81712 36648 ft 412 kts 184°
2026-05-07 18:47 35.19338 -7.81472 36079 ft 412 kts 184°
2026-05-07 18:47 35.16473 -7.81233 35365 ft 414 kts 184°
2026-05-07 18:47 35.13592 -7.80995 34607 ft 416 kts 183°
2026-05-07 18:48 35.10692 -7.80754 33832 ft 419 kts 183°
2026-05-07 18:48 35.07777 -7.80511 32996 ft 421 kts 183°
2026-05-07 18:48 35.04844 -7.80265 32156 ft 424 kts 182°
2026-05-07 18:48 35.01893 -7.80018 31306 ft 426 kts 182°
2026-05-07 18:49 34.98925 -7.79770 30441 ft 429 kts 182°
2026-05-07 18:49 34.95937 -7.79518 29676 ft 429 kts 182°
2026-05-07 18:49 34.92975 -7.79267 29079 ft 424 kts 182°
2026-05-07 18:49 34.90051 -7.79019 28482 ft 419 kts 182°
2026-05-07 18:50 34.87156 -7.78776 27878 ft 414 kts 182°
2026-05-07 18:50 34.84295 -7.78536 27285 ft 410 kts 182°
2026-05-07 18:50 34.81463 -7.78300 26710 ft 406 kts 182°
2026-05-07 18:50 34.78657 -7.78067 26147 ft 402 kts 182°
2026-05-07 18:51 34.75882 -7.77836 25594 ft 398 kts 182°
2026-05-07 18:51 34.73131 -7.77609 25003 ft 395 kts 182°
2026-05-07 18:51 34.70396 -7.77410 24447 ft 391 kts 182°
2026-05-07 18:51 34.67692 -7.77227 23933 ft 388 kts 182°
2026-05-07 18:52 34.65013 -7.77047 23392 ft 384 kts 182°
2026-05-07 18:52 34.62355 -7.76867 22772 ft 381 kts 182°
2026-05-07 18:52 34.59721 -7.76686 22155 ft 378 kts 182°
2026-05-07 18:52 34.57108 -7.76506 21550 ft 375 kts 182°
2026-05-07 18:53 34.54512 -7.76326 20957 ft 372 kts 182°
2026-05-07 18:53 34.51937 -7.76147 20375 ft 369 kts 182°
2026-05-07 18:53 34.49384 -7.75970 19809 ft 367 kts 181°
2026-05-07 18:53 34.46843 -7.75793 19221 ft 364 kts 181°
2026-05-07 18:54 34.44321 -7.75619 18667 ft 362 kts 181°
2026-05-07 18:54 34.41814 -7.75445 18105 ft 360 kts 181°
2026-05-07 18:54 34.39325 -7.75272 17527 ft 357 kts 181°
2026-05-07 18:54 34.36858 -7.75101 16972 ft 353 kts 181°
2026-05-07 18:55 34.34415 -7.74931 16416 ft 350 kts 181°
2026-05-07 18:55 34.32000 -7.74763 16065 ft 344 kts 180°
2026-05-07 18:55 34.29597 -7.74597 15968 ft 348 kts 180°
2026-05-07 18:55 34.27173 -7.74431 15958 ft 349 kts 180°
2026-05-07 18:56 34.24784 -7.74266 15960 ft 348 kts 180°
2026-05-07 18:56 34.22362 -7.74098 15952 ft 348 kts 180°
2026-05-07 18:56 34.19940 -7.73931 15960 ft 349 kts 181°
2026-05-07 18:56 34.17513 -7.73758 15963 ft 349 kts 180°
2026-05-07 18:57 34.15090 -7.73543 15963 ft 350 kts 179°
2026-05-07 18:57 34.12663 -7.73309 15963 ft 349 kts 179°
2026-05-07 18:57 34.10241 -7.73073 15963 ft 349 kts 179°
2026-05-07 18:57 34.07820 -7.72956 15947 ft 346 kts 185°
2026-05-07 18:58 34.05438 -7.73176 15708 ft 342 kts 189°
2026-05-07 18:58 34.03073 -7.73473 15286 ft 341 kts 189°
2026-05-07 18:58 34.00723 -7.73777 14777 ft 338 kts 189°
2026-05-07 18:58 33.98392 -7.74086 14266 ft 336 kts 189°
2026-05-07 18:59 33.96077 -7.74397 13757 ft 333 kts 189°
2026-05-07 18:59 33.93780 -7.74703 13204 ft 331 kts 189°
2026-05-07 18:59 33.91502 -7.75011 12651 ft 328 kts 189°
2026-05-07 18:59 33.89241 -7.75322 12122 ft 326 kts 189°
2026-05-07 19:00 33.86996 -7.75634 11619 ft 323 kts 189°
2026-05-07 19:00 33.84774 -7.75947 11100 ft 321 kts 189°
2026-05-07 19:00 33.82565 -7.76263 10593 ft 318 kts 189°
2026-05-07 19:00 33.80376 -7.76581 10171 ft 315 kts 189°
2026-05-07 19:01 33.78209 -7.76899 10009 ft 316 kts 189°
2026-05-07 19:01 33.76021 -7.77225 9955 ft 317 kts 189°
2026-05-07 19:01 33.73833 -7.77554 9948 ft 317 kts 189°
2026-05-07 19:01 33.71647 -7.77879 9950 ft 317 kts 189°
2026-05-07 19:02 33.69459 -7.78199 9927 ft 315 kts 189°
2026-05-07 19:02 33.67290 -7.78504 9660 ft 313 kts 189°
2026-05-07 19:02 33.65131 -7.78817 9166 ft 312 kts 189°
2026-05-07 19:02 33.62974 -7.79140 8615 ft 312 kts 189°
2026-05-07 19:03 33.60826 -7.79474 8087 ft 311 kts 189°
2026-05-07 19:03 33.58688 -7.79819 7516 ft 311 kts 189°
2026-05-07 19:03 33.56550 -7.80176 7019 ft 309 kts 189°
2026-05-07 19:03 33.54435 -7.80538 6597 ft 305 kts 189°
2026-05-07 19:04 33.52339 -7.80903 6040 ft 305 kts 189°
2026-05-07 19:04 33.50263 -7.81259 5531 ft 304 kts 189°
2026-05-07 19:04 33.48165 -7.81623 5101 ft 305 kts 189°
2026-05-07 19:04 33.46039 -7.81963 4967 ft 309 kts 185°
2026-05-07 19:05 33.43914 -7.81699 4946 ft 304 kts 169°
2026-05-07 19:05 33.41902 -7.81193 4939 ft 287 kts 169°
2026-05-07 19:05 33.40006 -7.80724 4940 ft 270 kts 169°
2026-05-07 19:05 33.38182 -7.80276 4946 ft 270 kts 169°
2026-05-07 19:06 33.36936 -7.79970 4941 ft 270 kts 169°
2026-05-07 19:06 33.33269 -7.79072 4960 ft 269 kts 169°
2026-05-07 19:06 33.31435 -7.78624 4964 ft 269 kts 169°
2026-05-07 19:07 33.29599 -7.78177 4960 ft 269 kts 169°
2026-05-07 19:07 33.27761 -7.77734 4961 ft 270 kts 169°
2026-05-07 19:07 33.25923 -7.77292 4961 ft 269 kts 169°
2026-05-07 19:07 33.24115 -7.76846 4957 ft 269 kts 169°
2026-05-07 19:08 33.22281 -7.76399 4964 ft 269 kts 169°
2026-05-07 19:08 33.20448 -7.75953 4909 ft 268 kts 169°
2026-05-07 19:08 33.18624 -7.75507 4603 ft 269 kts 169°
2026-05-07 19:08 33.16775 -7.75060 4186 ft 272 kts 169°
2026-05-07 19:09 33.14896 -7.74622 4043 ft 276 kts 169°
2026-05-07 19:09 33.13058 -7.74199 4015 ft 262 kts 169°
2026-05-07 19:09 33.11324 -7.73796 4010 ft 246 kts 169°
2026-05-07 19:09 33.09662 -7.73413 4015 ft 246 kts 169°
2026-05-07 19:10 33.07988 -7.73025 4016 ft 241 kts 169°
2026-05-07 19:10 33.06352 -7.72646 4015 ft 241 kts 169°
2026-05-07 19:10 33.04700 -7.72232 4015 ft 244 kts 161°
2026-05-07 19:10 33.03245 -7.71193 4006 ft 246 kts 140°
2026-05-07 19:11 33.01953 -7.69912 4012 ft 240 kts 139°
2026-05-07 19:11 33.00666 -7.68631 4008 ft 241 kts 139°
2026-05-07 19:11 32.99412 -7.67322 4001 ft 239 kts 128°
2026-05-07 19:11 32.98693 -7.65551 4015 ft 241 kts 101°
2026-05-07 19:12 32.98350 -7.63610 4003 ft 239 kts 99°
2026-05-07 19:12 32.98333 -7.61661 4013 ft 235 kts 73°
2026-05-07 19:12 32.98828 -7.59809 4013 ft 234 kts 69°
2026-05-07 19:12 32.99568 -7.58160 4016 ft 222 kts 50°
2026-05-07 19:13 33.00534 -7.56712 4004 ft 223 kts 47°
2026-05-07 19:13 33.01648 -7.55412 4006 ft 227 kts 39°
2026-05-07 19:13 33.02864 -7.54195 4008 ft 226 kts 36°
2026-05-07 19:13 33.04157 -7.53211 4010 ft 214 kts 29°
2026-05-07 19:14 33.05392 -7.52345 4006 ft 198 kts 30°
2026-05-07 19:14 33.06554 -7.51537 4022 ft 194 kts 29°
2026-05-07 19:14 33.07729 -7.50725 4024 ft 195 kts 27°
2026-05-07 19:14 33.08966 -7.50220 4015 ft 186 kts
2026-05-07 19:15 33.10278 -7.50265 4016 ft 193 kts 351°
2026-05-07 19:15 33.11602 -7.50617 4037 ft 193 kts 345°
2026-05-07 19:15 33.12851 -7.51045 4008 ft 178 kts 345°
2026-05-07 19:15 33.13966 -7.51427 4018 ft 155 kts 346°
2026-05-07 19:16 33.14941 -7.51759 4007 ft 140 kts 346°
2026-05-07 19:16 33.15933 -7.52095 4021 ft 149 kts 346°
2026-05-07 19:16 33.16856 -7.52411 4005 ft 130 kts 345°
2026-05-07 19:16 33.17752 -7.52715 4020 ft 135 kts 346°
2026-05-07 19:17 33.18634 -7.53016 4020 ft 132 kts 346°
2026-05-07 19:17 33.19532 -7.53323 4030 ft 133 kts 346°
2026-05-07 19:17 33.20420 -7.53626 4022 ft 134 kts 345°
2026-05-07 19:17 33.21319 -7.53932 4024 ft 134 kts 345°
2026-05-07 19:18 33.22230 -7.54247 3792 ft 136 kts 345°
2026-05-07 19:18 33.23118 -7.54562 3456 ft 133 kts 345°
2026-05-07 19:18 33.24017 -7.54893 3032 ft 135 kts 346°
2026-05-07 19:18 33.24887 -7.55201 2831 ft 125 kts 348°
2026-05-07 19:19 33.25749 -7.55500 2665 ft 130 kts 350°
2026-05-07 19:19 33.26602 -7.55732 2498 ft 124 kts 351°
2026-05-07 19:19 33.27461 -7.55957 2329 ft 130 kts 347°
2026-05-07 19:19 33.28328 -7.56261 2134 ft 131 kts 344°
2026-05-07 19:20 33.29191 -7.56602 1877 ft 127 kts 345°
2026-05-07 19:20 33.30012 -7.56916 1810 ft 122 kts 346°
2026-05-07 19:20 33.30862 -7.57188 1600 ft 127 kts 346°
2026-05-07 19:20 33.31701 -7.57456 1409 ft 125 kts 343°
2026-05-07 19:21 33.32542 -7.57768 1275 ft 129 kts 344°
2026-05-07 19:21 33.33396 -7.58061 1090 ft 122 kts 345°
2026-05-07 19:21 33.34207 -7.58342 903 ft 123 kts 344°
2026-05-07 19:21 33.35050 -7.58632 714 ft 126 kts 344°
2026-05-07 19:22 33.35845 -7.58904 653 ft 100 kts 345°
2026-05-07 19:22 33.36322 -7.59063 652 ft 42 kts 346°
2026-05-07 19:22 33.36486 -7.59078 652 ft 21 kts
2026-05-07 19:22 33.36633 -7.59044 650 ft 22 kts 15°
2026-05-07 19:23 33.36737 -7.59010 651 ft 0 kts 21°
2026-05-07 19:23 33.36740 -7.59008 651 ft 5 kts 23°
2026-05-07 19:23 33.36775 -7.58957 650 ft 10 kts 72°
2026-05-07 19:24 33.36806 -7.58834 651 ft 20 kts 73°
2026-05-07 19:24 33.36842 -7.58679 653 ft 13 kts 75°
2026-05-07 19:24 33.36854 -7.58627 653 ft 0 kts 74°
2026-05-07 19:26 33.36869 -7.58563 653 ft 15 kts 74°
2026-05-07 19:26 33.36901 -7.58427 650 ft 19 kts 74°
2026-05-07 19:26 33.36940 -7.58269 652 ft 21 kts 70°
2026-05-07 19:26 33.37047 -7.58254 652 ft 14 kts 358°
2026-05-07 19:27 33.37101 -7.58236 652 ft 3 kts 76°
2026-05-07 19:27 33.37107 -7.58185 650 ft 9 kts 74°
2026-05-07 19:27 33.37109 -7.58175 650 ft 0 kts 74°
2026-05-07 19:27 33.37110 -7.58171 650 ft 0 kts 74°